Home   Weather   Kaufbeuren   Past weeks

Flag for Germany Past Weather in Kaufbeuren, Bavaria, Germany — Yesterday and Last 2 Weeks

Now
45 °F

Quite cool.


Feels Like: 45 °F
Forecast: 47 / 67 °F
Wind: 2 mph from Southwest

Location: Altenstadt Airport

Current Time: Sep 25, 2016 at 5:56:36 AM

Latest Report: Sep 25, 2016 at 5:20 AM


Visibility: N/A

Pressure: 30.18 "Hg (27.73 "Hg at 693m altitude)

Humidity: 100%

Dew Point: 45 °F

Location of KaufbeurenLocation

Past Weather in Kaufbeuren — Graph

°F

Kaufbeuren Temperature Yesterday

Maximum temperature yesterday: 64 °F (at 2:20 PM)
Minimum temperature yesterday: 41 °F (at 4:20 AM)
Average temperature yesterday: 53 °F

High & Low Weather Summary for the Past Weeks

 TemperatureHumidityPressure
High79 °F (Sep 12, 3:20 PM)100% (Sep 10, 6:20 AM)30.36 "Hg (Sep 10, 6:20 AM)
Low41 °F (Sep 22, 7:20 AM)34% (Sep 15, 12:20 PM)29.89 "Hg (Sep 15, 3:20 AM)
Average57 °F83%30.08 "Hg
* Reported Sep 10 4:20 AM — Sep 25 4:20 AM, Kaufbeuren, Weather by CustomWeather, © 2016

Note: Actual official high and low records may vary slightly from our data, if they occured in-between our weather recording intervals... More about our weather records

Advertising

Kaufbeuren Weather History for the Previous 24 Hours

Scroll right to see more
 ConditionsComfort  
Time TempWeatherWind HumidityBarometerVisibility
4:20 AM
Sun, Sep 25
45 °FQuite cool.3 mph100%30.18 "HgN/A
3:20 AM46 °FCool.3 mph93%30.18 "HgN/A
2:20 AM46 °FCool.6 mph93%30.21 "HgN/A
1:20 AM48 °FCool.2 mph94%30.21 "HgN/A
12:20 AM48 °FCool.No wind94%30.21 "HgN/A
11:20 PM
Sat, Sep 24
52 °FCool.2 mph88%30.21 "HgN/A
10:20 PM50 °FCool.1 mph94%30.24 "HgN/A
9:20 PM54 °FCool.1 mph82%30.24 "HgN/A
8:20 PM55 °FCool.2 mph77%30.24 "HgN/A
7:20 PM57 °FCool.5 mph72%30.24 "HgN/A
6:20 PM63 °FMild.6 mph59%30.24 "HgN/A
5:20 PM64 °FMild.8 mph56%30.27 "HgN/A
4:20 PM64 °FMild.8 mph60%30.27 "HgN/A
3:20 PM64 °FMild.8 mph60%30.27 "HgN/A
2:20 PM64 °FMild.8 mph60%30.30 "HgN/A
1:20 PM63 °FMild.9 mph59%30.30 "HgN/A
12:20 PM61 °FCool.13 mph68%30.33 "HgN/A
11:20 AM57 °FCool.9 mph88%30.33 "HgN/A
10:20 AM52 °FCool.5 mph100%30.33 "HgN/A
9:20 AM45 °FQuite cool.2 mph100%30.33 "HgN/A
8:20 AM41 °FQuite cool.3 mph100%30.33 "HgN/A
7:20 AM41 °FQuite cool.1 mph100%30.33 "HgN/A
6:20 AM43 °FQuite cool.3 mph93%30.30 "HgN/A
5:20 AM41 °FQuite cool.3 mph100%30.30 "HgN/A
Weather by CustomWeather, © 2016

See weather overviewHow to use our weather pages